RH
42 45 64 88 102 102 100 96 89 90 95 98 101 100 99 98 97 99 104 105 101 100 101 99 96 91 88 90 89 84 79 77 71 64 59 56 58 66 71 71 72 77 84 91 95 95 93 90 88 83 78 75 75 75 76 77 77 77 76 78 84 81 75 68 65 71 78 83 80 82 93 99 100 96 90 88 79 67 60 54 51 48 45 45 46 48 50 50
43 42 53 76 97 103 101 99 93 82 77 78 81 81 79 78 78 81 89 101 105 103 100 100 100 96 90 86 84 78 71 72 72 68 63 56 52 50 52 59 66 72 75 80 86 91 93 92 89 86 84 81 77 75 74 76 78 77 72 70 74 74 71 67 63 65 71 80 85 88 91 89 85 83 87 92 83 66 55 50 45 43 41 42 43 44 45 45
44 41 43 59 85 103 103 99 100 94 82 74 72 71 70 72 74 72 73 85 100 105 102 101 101 101 100 98 98 94 84 79 75 73 69 63 59 53 47 45 49 57 60 63 66 71 77 81 83 79 75 73 69 66 63 65 71 73 68 64 64 63 62 59 57 60 62 63 68 74 76 72 69 73 83 87 82 71 60 52 46 44 45 47 47 47 47 46
46 41 39 45 64 92 105 101 99 101 97 90 81 75 76 83 85 81 75 75 84 96 102 104 102 100 101 100 100 99 95 90 85 81 79 74 70 67 61 52 46 47 49 50 51 52 55 61 67 69 67 63 58 54 52 54 59 63 61 56 54 53 52 51 50 49 49 48 49 52 54 57 61 65 72 75 72 65 56 48 45 44 46 51 55 58 60 61
48 43 37 38 48 72 97 104 101 100 100 99 93 87 84 88 93 93 89 86 88 91 94 98 100 101 103 104 101 97 92 88 82 78 77 73 69 67 66 61 54 51 50 49 47 46 45 46 49 53 55 54 51 48 48 48 51 53 52 50 47 46 47 47 47 47 45 44 45 48 51 54 57 61 64 63 56 48 45 43 43 48 58 71 81 86 88 89
50 47 40 35 38 53 79 100 103 100 100 101 99 95 92 92 95 98 96 95 99 99 95 93 92 94 97 99 101 101 98 94 89 85 83 79 74 67 62 57 53 49 48 47 46 44 43 43 43 43 43 43 43 41 41 41 42 43 43 42 42 43 46 47 48 50 50 48 48 52 54 52 51 54 55 50 45 46 51 52 57 69 84 96 101 102 102 101
53 51 47 39 35 38 57 85 102 104 100 100 101 100 98 96 96 101 102 101 102 101 100 98 96 94 92 91 94 99 99 101 102 100 97 96 94 88 81 74 66 61 57 54 52 51 49 46 44 43 42 43 43 44 47 47 45 46 45 43 43 45 47 48 50 52 52 51 50 49 47 44 44 47 50 52 55 63 73 80 87 95 101 103 102 102 101 101
58 56 54 48 41 35 37 55 82 101 104 100 99 100 101 100 98 98 103 104 104 103 101 99 100 100 97 95 96 98 99 100 103 103 102 102 101 99 98 96 93 91 87 86 86 84 79 73 67 60 58 59 59 61 62 63 62 61 58 53 49 49 47 46 47 48 48 47 46 45 46 50 59 67 73 80 86 89 94 99 101 101 102 101 102 102 101 102
66 63 61 57 52 45 38 36 47 71 93 103 103 100 99 100 100 100 101 102 102 102 104 103 102 102 101 102 100 99 100 100 100 101 102 104 103 100 98 98 99 101 102 102 102 101 99 99 97 92 88 86 84 83 81 82 81 77 76 73 67 65 64 61 59 59 59 60 62 65 70 79 90 96 97 99 100 99 100 100 100 100 100 101 103 102 101 102
74 71 67 64 61 57 51 43 36 38 54 76 93 101 102 100 100 99 100 101 100 101 103 104 101 99 98 100 103 103 101 100 100 100 101 102 102 102 100 97 93 95 98 95 93 91 90 92 95 97 97 97 99 99 98 98 98 94 93 93 90 89 90 89 89 89 89 90 91 93 96 99 101 101 100 101 101 100 100 100 100 100 100 101 103 101 102 104
79 76 72 69 66 63 60 55 50 43 37 40 54 72 88 97 101 101 100 99 99 100 102 103 100 97 95 96 102 106 103 100 97 95 96 98 99 101 102 101 97 94 92 86 81 78 74 73 75 78 79 80 86 90 91 93 96 99 100 102 101 100 101 100 99 100 100 100 100 100 101 100 100 100 100 100 100 100 101 101 100 101 103 103 104 104 105 104
82 78 75 71 68 65 64 62 58 55 49 41 37 39 48 62 75 87 95 99 100 101 101 101 100 99 98 99 102 104 103 101 97 91 88 87 87 88 88 88 88 85 81 77 75 73 73 73 74 77 80 80 83 84 84 83 83 85 88 93 97 97 99 101 102 102 101 101 100 101 102 101 101 101 100 101 102 102 103 104 104 104 106 106 105 105 103 102
82 79 75 71 69 67 66 64 61 58 56 54 50 45 40 39 42 49 60 72 83 91 96 99 100 100 100 100 100 100 100 101 100 98 95 91 88 86 83 81 80 80 81 84 88 88 89 89 89 92 94 95 96 95 95 94 91 89 86 87 89 89 90 93 97 100 101 103 102 103 105 103 102 103 104 104 105 106 106 106 106 107 107 103 103 102 101 101
80 78 75 72 69 66 62 59 58 56 55 54 54 53 52 48 44 41 39 41 47 55 64 74 82 87 91 95 96 97 100 100 99 100 100 101 100 99 97 95 94 94 95 98 100 100 101 100 100 100 99 99 99 98 98 98 99 98 97 96 96 96 94 94 97 99 100 102 102 103 105 103 103 105 106 106 107 109 108 104 103 106 105 100 101 101 100 101
81 79 76 70 63 57 53 50 48 46 45 45 45 45 45 46 46 45 44 41 39 39 39 42 48 54 60 66 73 79 85 89 90 93 95 97 99 100 101 100 101 100 99 100 100 100 101 101 102 102 101 101 102 102 103 102 101 100 100 99 99 99 99 97 97 97 98 99 98 99 99 98 99 102 105 107 108 108 105 103 102 103 103 101 103 103 102 104
83 78 69 59 52 48 44 43 41 40 39 38 39 39 39 39 39 38 39 39 38 38 37 36 36 36 36 38 42 47 52 57 61 67 72 76 79 83 87 90 93 95 95 97 97 98 98 98 100 101 101 101 102 104 103 105 106 103 104 104 103 103 102 100 98 97 99 100 99 99 99 98 100 102 105 106 107 106 104 105 106 105 105 104 104 102 100 99
77 67 56 49 46 43 42 42 42 43 45 47 49 49 49 49 48 46 44 42 40 38 37 37 35 34 33 32 31 31 32 33 34 37 39 42 45 48 52 55 58 61 65 68 71 74 78 81 85 87 91 94 95 97 96 98 100 99 101 102 101 102 103 103 101 102 103 104 104 104 104 105 106 107 108 107 107 107 104 103 102 99 97 93 88 85 80 76
62 51 46 45 44 45 46 48 51 56 62 65 67 68 68 67 65 62 59 55 52 48 44 41 38 36 34 33 32 30 29 27 26 25 24 24 25 25 26 26 27 27 27 28 30 33 36 41 46 51 57 62 68 73 75 78 82 84 86 89 90 92 94 96 97 100 102 102 102 102 101 100 101 99 99 97 95 92 88 84 80 75 72 68 65 63 60 59
47 43 43 45 48 51 55 60 67 73 77 79 78 78 77 75 72 68 65 61 58 55 51 46 43 40 38 36 33 31 29 27 25 24 23 21 21 21 21 21 21 20 20 19 18 17 17 18 19 22 25 29 34 39 44 49 54 59 63 67 71 74 77 80 81 83 84 84 84 83 81 79 78 76 74 73 71 68 66 62 59 57 56 55 55 56 57 59
42 44 48 52 56 62 69 77 82 82 82 81 80 80 78 76 73 70 67 63 61 58 54 51 47 44 42 39 36 33 30 28 26 25 24 23 22 22 23 24 25 25 26 25 24 22 20 20 19 18 18 18 19 21 24 27 30 34 39 43 47 51 55 58 59 60 60 61 61 59 57 56 56 56 57 58 59 59 59 59 59 59 59 59 61 63 66 70
46 51 56 60 66 75 82 84 84 82 81 80 80 79 77 76 74 72 68 64 61 57 54 51 48 45 43 40 37 34 33 31 29 27 26 25 26 26 26 26 27 29 30 31 33 32 31 30 28 26 24 23 22 21 21 22 22 23 25 27 29 32 36 39 40 42 43 44 45 44 44 46 49 56 62 67 70 72 73 75 77 79 80 82 83 84 86 89
55 60 65 71 78 84 84 82 81 81 81 82 82 80 78 76 73 70 66 63 60 55 52 50 46 44 41 39 36 34 34 33 33 31 30 29 30 31 31 31 32 32 33 34 36 37 39 40 40 39 37 35 34 32 31 30 29 29 29 29 30 31 34 37 40 42 43 46 48 47 47 51 61 75 85 90 93 95 97 99 100 101 103 103 103 101 98 96
66 71 76 81 83 82 81 81 83 85 86 86 84 81 77 74 71 67 64 62 59 55 51 47 43 39 34 31 28 26 25 24 24 24 24 24 24 26 28 30 32 34 35 36 37 38 39 41 43 45 46 47 48 49 50 50 49 49 49 50 51 52 54 58 63 67 67 69 70 70 68 72 84 97 103 104 106 107 106 104 101 99 97 95 92 88 84 80
76 78 81 81 80 81 84 86 90 91 90 86 81 78 75 73 71 68 65 63 59 53 46 37 30 24 20 17 16 14 13 13 13 13 13 14 14 15 17 20 22 25 28 30 33 35 36 38 39 41 43 46 49 52 55 57 57 58 61 63 65 66 67 69 73 80 83 80 76 73 68 69 80 88 88 87 87 87 85 82 81 79 78 77 76 75 73 71
77 78 80 81 84 89 91 93 94 91 86 83 83 80 78 76 73 69 66 62 53 41 30 22 17 15 14 14 14 13 13 13 12 12 11 11 10 10 10 11 13 14 17 19 21 24 26 29 31 34 36 38 41 43 45 47 47 46 46 49 51 53 54 54 56 61 68 67 62 60 56 52 60 68 69 68 69 68 67 66 66 65 65 64 63 62 60 58
76 77 79 84 92 94 93 94 92 88 87 88 88 83 79 76 73 69 63 51 36 24 19 17 17 18 20 22 23 22 21 20 19 17 16 15 14 14 13 13 13 13 14 15 17 19 20 23 25 27 29 31 33 35 36 38 41 41 41 43 45 46 48 50 51 53 56 58 55 56 54 50 51 55 56 56 56 54 52 51 50 48 47 46 45 44 43 43
77 77 81 90 94 93 93 94 91 90 92 91 87 81 78 76 72 62 47 31 21 21 24 25 28 28 28 30 31 30 28 26 23 22 22 21 20 19 19 18 19 19 20 20 21 22 24 27 30 32 34 36 39 40 42 44 46 47 48 49 49 48 47 47 48 47 46 46 45 44 43 40 39 40 40 40 39 39 39 39 39 39 40 40 41 41 41 42
76 80 88 96 96 95 98 96 93 93 92 88 83 81 80 74 61 42 26 22 25 30 33 34 34 33 30 29 28 26 24 22 21 21 21 22 23 23 23 24 25 27 28 29 30 32 33 35 37 38 39 40 41 41 42 42 42 42 42 42 41 40 40 39 38 38 38 38 38 37 36 36 36 36 36 36 36 37 37 38 39 39 40 40 41 41 41 42
80 88 95 98 99 101 101 97 94 92 88 85 84 84 77 60 39 24 22 31 35 33 31 31 29 27 25 23 22 20 20 19 19 19 19 19 20 20 21 21 22 24 27 28 28 29 31 32 33 34 34 35 35 35 36 36 36 37 38 38 39 39 38 38 38 38 38 39 39 38 37 37 37 37 38 37 37 37 37 37 38 38 39 39 39 40 40 40
87 94 99 100 100 101 99 95 92 89 86 87 87 79 58 35 24 25 33 38 35 28 26 25 23 22 22 21 20 20 19 19 19 19 19 20 20 22 23 23 23 24 27 31 33 33 34 35 36 36 36 36 36 36 36 37 37 38 39 39 39 39 39 39 39 38 39 39 39 38 38 37 36 36 37 37 37 36 37 37 37 37 38 38 38 38 38 38
92 99 101 98 96 98 96 92 89 88 90 91 80 58 35 25 29 35 36 32 27 25 24 23 22 21 20 19 19 19 19 19 20 21 23 24 27 29 31 31 30 28 28 30 33 34 35 35 34 35 35 35 35 34 34 34 35 35 36 36 36 37 37 37 37 37 38 38 37 37 37 37 36 36 36 36 36 36 36 36 36 36 36 37 37 37 38 38
98 102 99 94 94 95 91 89 90 93 94 81 56 35 29 33 35 32 29 26 24 24 22 21 20 19 18 19 19 20 20 22 23 25 27 29 31 32 33 32 32 31 29 28 28 29 31 31 32 32 33 34 35 34 34 34 34 35 35 35 36 37 37 39 39 40 41 41 41 40 40 40 40 40 39 39 38 39 39 39 39 39 39 39 39 39 39 39
101 100 96 94 92 89 88 91 95 95 81 55 34 31 35 34 30 27 26 24 23 21 20 19 19 19 20 21 22 24 26 28 31 33 34 35 35 36 37 37 37 37 36 35 34 33 34 35 36 37 37 38 38 39 40 40 40 40 40 40 41 41 41 41 41 42 43 44 44 42 42 42 42 42 42 42 41 41 41 42 41 41 41 40 40 39 39 39
100 98 96 94 88 86 90 95 95 82 56 35 33 36 33 28 26 25 24 22 21 20 19 19 19 20 22 24 27 30 32 34 36 37 37 37 37 37 38 37 37 37 36 36 36 36 37 38 39 41 42 44 45 46 47 46 45 44 42 41 40 39 38 38 37 37 37 39 40 41 41 42 42 42 43 42 42 42 42 42 41 41 40 38 37 35 33 30
100 98 96 88 84 89 94 95 85 59 37 34 37 33 27 26 25 23 21 21 20 20 22 24 26 29 32 34 36 37 38 39 39 39 38 38 38 38 37 37 37 37 37 38 38 39 41 42 43 45 46 47 47 46 45 44 43 41 41 40 39 38 38 37 37 36 36 37 39 40 41 42 42 42 43 43 43 42 41 39 36 33 30 27 25 22 19 17
98 96 88 82 86 93 95 88 65 41 35 38 33 27 26 25 22 21 21 20 21 24 27 30 34 37 39 39 39 40 40 39 38 38 37 37 38 37 37 37 38 39 41 43 44 45 45 46 46 45 44 44 44 43 42 41 41 40 40 39 39 39 39 39 39 38 38 38 39 40 41 41 41 40 39 37 34 31 27 24 21 19 17 15 14 13 13 12
95 88 82 84 91 94 91 72 46 36 38 33 27 26 25 23 22 22 21 22 26 29 31 34 36 37 38 37 37 37 37 36 36 36 36 37 37 37 39 40 43 45 47 47 47 47 47 46 45 44 43 43 42 42 41 39 39 38 38 38 38 39 38 38 38 37 37 38 38 39 37 33 30 26 23 21 18 16 14 14 13 12 12 12 12 13 12 12
89 82 83 88 92 93 79 53 37 37 34 27 26 26 23 22 22 22 25 29 31 33 35 38 39 39 39 38 37 36 35 35 36 37 38 38 39 42 44 46 47 47 46 47 47 47 47 46 45 43 43 42 40 39 38 37 37 37 38 38 37 37 36 35 35 33 32 31 29 27 24 20 16 14 13 12 12 12 12 12 12 12 12 12 12 12 12 12
83 83 87 89 92 86 60 39 36 35 28 26 26 23 22 23 23 27 31 33 35 38 40 41 41 40 38 37 37 37 37 38 38 39 41 43 45 47 47 47 47 46 46 47 48 48 48 47 45 42 41 40 37 37 37 38 38 39 39 39 38 38 37 35 32 27 23 19 15 14 13 12 12 12 12 12 13 13 13 13 13 13 13 12 12 12 12 12
83 86 87 90 92 71 43 36 36 30 27 27 24 22 24 26 29 34 35 37 40 43 43 41 40 39 37 37 37 38 38 39 40 43 46 48 48 47 46 46 47 48 49 49 49 49 47 45 42 40 39 39 39 39 40 40 40 41 41 41 40 37 33 28 22 18 14 12 11 11 11 12 12 12 13 13 13 13 13 13 13 13 13 13 13 13 13 13
87 86 87 93 81 52 37 38 32 27 28 25 22 25 28 31 35 36 38 42 45 44 43 41 39 38 38 38 38 38 40 42 45 48 49 48 47 47 48 49 50 51 51 51 50 47 45 42 41 40 40 41 42 41 40 40 40 39 39 36 32 26 21 17 14 13 12 13 13 13 13 14 13 13 14 14 14 14 13 13 13 13 13 13 13 13 12 12
87 85 91 88 62 40 38 35 28 28 26 23 26 30 33 37 37 38 42 45 45 44 43 40 39 39 38 38 39 41 44 48 50 49 49 48 49 50 51 51 52 52 51 49 46 43 42 42 41 41 41 41 41 41 40 40 38 34 30 24 19 16 13 13 13 13 14 15 15 15 15 15 14 14 14 14 14 14 13 13 13 13 13 12 12 11 11 10
85 88 92 73 47 39 38 31 28 27 24 27 33 35 37 38 39 42 45 45 44 44 41 40 39 38 38 40 43 47 50 51 50 50 50 51 52 52 53 52 51 49 46 44 42 42 43 43 43 43 42 42 41 41 39 35 29 24 19 15 13 13 13 14 14 14 15 15 15 14 14 14 13 13 13 13 13 13 13 13 12 12 12 11 10 9 9 8
87 93 85 57 41 39 34 29 28 27 28 34 36 37 40 41 43 46 46 44 44 42 40 40 39 38 41 45 49 52 52 51 51 52 53 53 53 53 51 49 46 44 43 42 42 43 43 43 43 43 43 43 41 38 32 25 20 16 14 14 14 15 15 15 15 15 15 14 14 13 13 13 13 13 13 14 13 13 13 12 11 10 10 10 9 9 8 8
92 93 72 47 40 38 31 28 28 29 34 38 38 41 43 45 47 47 46 46 44 41 40 39 40 43 47 50 53 53 52 53 55 55 55 54 53 50 47 45 44 43 44 44 44 44 43 43 43 42 41 38 32 26 20 16 14 14 14 15 15 16 16 15 15 14 14 14 13 13 13 14 14 14 14 14 13 13 12 11 10 10 9 9 9 9 8 8
95 84 58 42 39 34 29 29 30 34 39 40 42 44 45 48 49 48 48 46 42 41 41 41 45 50 53 54 55 54 56 57 57 56 55 53 49 47 45 45 45 45 45 45 45 44 43 42 41 39 34 27 21 16 14 14 14 14 15 15 15 15 15 14 13 13 13 14 14 14 14 15 15 14 13 12 12 12 11 11 10 10 9 9 9 8 8 8
92 70 47 41 38 31 29 31 35 40 43 42 45 47 48 50 50 49 47 44 42 42 42 46 52 55 56 57 57 58 60 58 57 56 53 50 48 47 47 47 46 46 46 46 45 44 43 41 38 32 24 18 15 14 14 14 15 15 15 15 14 14 14 13 13 13 13 14 15 14 14 13 13 12 12 12 11 11 11 10 10 10 9 9 9 9 9 9
82 56 43 41 34 29 32 36 41 45 44 44 47 49 50 50 48 47 45 43 43 43 47 54 58 58 59 60 61 61 59 57 56 54 51 50 50 49 48 46 46 46 46 45 44 43 41 37 30 22 16 14 14 14 15 16 16 16 15 14 14 13 13 13 13 13 14 14 13 13 13 13 12 12 12 12 12 11 11 10 10 10 11 11 11 10 10 9
69 47 42 38 31 32 36 40 44 44 44 46 49 50 50 48 46 46 44 43 44 47 54 58 59 59 61 62 62 60 57 56 56 54 54 54 52 50 48 47 46 46 45 44 43 41 37 30 21 16 14 14 15 15 16 16 16 15 14 14 13 13 14 14 13 13 13 13 13 13 13 13 13 13 12 12 11 11 11 11 11 12 12 12 11 10 9 8
55 43 41 34 31 36 40 44 45 43 45 49 50 49 49 47 47 47 44 44 48 54 59 59 59 62 63 63 61 58 58 58 57 57 57 55 52 50 48 47 47 46 44 43 41 37 29 21 15 14 14 16 16 16 16 16 16 15 14 13 14 14 14 14 13 12 13 13 13 13 13 13 12 12 12 11 11 11 11 11 12 12 12 10 10 9 8 8
46 42 38 32 35 41 43 45 46 46 49 50 50 50 49 49 48 46 44 48 55 60 60 59 61 63 63 61 59 59 60 60 60 60 58 55 53 51 48 47 46 45 43 42 38 30 21 16 15 16 16 16 16 16 16 16 15 15 14 14 14 14 14 14 14 13 13 13 13 13 13 12 11 11 11 11 11 11 11 11 11 11 10 9 8 8 7 7
44 41 35 35 41 44 46 47 47 49 51 51 51 51 51 49 46 44 48 56 60 60 59 61 64 63 60 59 60 61 62 62 61 59 56 55 53 49 47 46 44 44 43 39 31 22 16 15 16 16 17 17 17 16 16 16 15 15 14 14 14 13 14 15 15 13 13 13 12 12 12 11 11 11 11 11 12 12 11 11 10 10 9 8 8 7 7 7
Wind_Speed
27 32 38 41 40 37 35 37 43 46 44 42 42 42 42 42 43 43 45 45 44 42 41 40 41 44 46 48 49 49 49 48 48 47 47 46 47 48 48 49 50 50 51 51 51 51 51 51 52 53 53 53 53 53 53 54 54 54 56 57 58 58 57 57 58 59 59 59 58 58 58 60 61 63 65 67 70 71 71 70 69 71 73 74 75 77 77 76
24 29 35 41 41 40 37 33 35 43 46 45 44 44 43 43 44 44 45 46 47 46 44 42 41 42 44 46 48 49 49 49 50 50 50 49 49 49 50 50 51 52 53 53 54 53 53 53 53 54 55 55 56 56 57 57 57 57 58 59 61 60 59 60 61 61 62 62 61 61 62 63 64 66 68 71 73 74 73 71 71 72 73 73 73 74 75 75
22 26 32 39 42 42 41 37 32 34 40 43 44 43 43 43 43 44 44 45 47 48 48 47 46 45 45 45 47 48 48 49 51 51 52 52 52 51 52 53 53 54 54 55 55 55 55 55 55 55 56 57 57 58 59 60 60 60 60 61 62 61 62 63 63 63 64 64 65 65 65 66 68 69 72 74 75 76 75 73 73 72 71 71 72 73 74 76
21 24 29 36 42 44 43 42 38 34 35 38 41 42 42 43 43 43 43 44 46 49 50 51 50 50 49 48 49 50 51 52 52 53 53 54 54 55 55 55 55 56 56 56 56 57 57 57 57 58 58 59 59 59 60 60 61 62 62 62 63 63 63 64 65 65 66 67 68 69 69 70 71 72 74 76 77 77 75 73 73 72 72 73 75 76 78 79
20 21 25 31 38 44 45 45 43 39 37 37 38 40 42 44 44 44 44 44 45 46 48 50 51 52 51 51 51 52 53 53 54 54 55 55 55 56 57 57 57 58 58 57 58 58 59 59 60 60 61 61 61 61 62 62 62 63 64 64 64 65 65 65 66 66 68 69 70 72 72 73 74 75 77 78 77 76 74 74 74 74 74 75 77 80 82 84
18 19 21 25 32 40 45 47 46 44 41 39 39 40 42 44 45 46 46 46 46 46 46 47 49 50 51 51 51 51 51 50 50 50 50 51 52 54 55 57 58 58 59 59 58 58 59 59 60 61 62 62 62 63 63 64 65 66 67 67 67 67 67 68 68 69 70 70 71 72 74 75 76 77 78 78 76 74 74 76 76 75 76 79 83 85 87 87
16 17 19 21 26 33 40 45 48 48 46 43 41 41 42 44 46 47 48 48 48 48 48 47 47 48 49 50 50 51 51 50 50 49 47 48 49 51 52 54 56 57 58 59 59 60 60 60 61 62 62 63 63 63 63 64 65 66 68 68 68 69 69 70 71 72 72 72 73 74 75 76 76 77 77 77 77 76 77 78 79 80 82 86 88 90 90 91
14 15 17 19 21 26 33 40 45 48 48 47 45 44 44 44 45 47 49 50 51 51 51 51 50 50 50 51 52 52 53 54 55 54 54 54 55 55 56 56 57 58 59 60 61 62 63 63 64 64 64 65 64 64 64 63 64 64 65 66 67 68 69 70 72 72 73 73 74 75 76 77 77 78 78 78 79 80 80 82 84 86 88 90 92 93 94 95
13 14 15 17 19 21 25 31 38 44 48 49 48 47 46 46 47 47 48 50 51 52 53 54 55 55 55 55 56 56 57 58 59 59 60 61 62 62 62 62 63 63 64 64 65 65 65 65 65 65 65 65 64 64 64 64 65 65 66 66 67 68 69 70 72 73 74 74 75 76 78 79 80 81 81 82 84 85 86 88 90 92 93 94 96 97 98 98
12 13 14 15 17 19 21 24 29 36 42 47 49 50 49 49 49 49 50 50 51 51 53 55 56 58 59 60 61 62 63 63 63 64 64 65 65 66 67 67 68 68 68 69 69 69 69 69 68 68 68 67 66 65 64 64 64 65 66 66 68 69 70 72 73 74 75 76 77 78 80 81 82 83 85 87 89 90 91 93 94 96 97 98 99 100 101 102
12 13 14 15 17 18 19 21 24 27 33 39 45 49 51 51 52 52 52 53 53 53 54 54 55 57 58 61 63 64 66 67 67 68 69 69 69 70 70 71 71 72 72 73 73 73 73 73 72 72 72 72 72 71 71 70 70 71 72 72 73 74 75 76 77 78 79 80 81 83 84 85 86 88 89 91 92 94 95 96 98 99 100 101 103 104 105 106
13 14 14 15 17 17 18 20 22 24 27 31 35 40 45 49 51 53 55 55 56 56 57 57 58 58 59 60 62 63 64 66 67 69 70 71 72 73 73 73 74 75 75 75 75 74 74 74 74 74 75 75 75 76 76 76 77 78 80 81 83 83 83 83 84 85 86 86 87 88 89 90 91 92 94 95 96 98 99 100 101 103 104 105 106 107 107 108
13 14 15 16 17 18 19 20 22 23 25 27 29 32 36 40 44 48 52 55 57 58 59 60 61 62 63 63 64 65 65 66 67 68 70 71 72 73 74 74 75 76 76 75 75 75 75 75 76 76 77 77 78 79 79 80 81 82 84 85 86 88 89 89 90 91 92 92 92 93 93 94 95 97 98 99 101 102 103 104 106 107 107 108 109 109 109 110
14 15 16 17 18 19 19 20 21 22 23 25 26 28 31 33 36 40 43 47 51 54 57 60 62 64 65 67 68 69 70 71 71 72 73 74 74 75 76 76 76 76 77 77 78 78 79 79 80 80 81 81 82 83 83 84 85 87 88 88 89 91 92 93 94 95 96 97 97 98 98 99 100 101 102 104 105 106 107 108 109 109 110 110 111 112 112 113
14 16 17 18 19 19 19 20 20 21 21 22 23 25 27 29 32 34 37 40 43 46 49 53 56 60 63 66 69 71 73 74 75 76 77 78 79 79 80 80 80 80 81 81 82 82 83 84 85 85 86 87 87 87 88 89 89 91 92 92 93 94 95 97 98 99 99 100 101 102 103 103 104 105 106 108 108 109 110 110 111 112 112 113 114 114 115 115
16 18 18 18 18 18 19 19 19 19 19 20 20 22 23 25 27 29 32 34 37 39 42 45 48 52 55 59 63 67 70 72 74 77 78 80 81 82 83 85 85 86 86 87 88 88 89 89 90 90 91 91 91 92 92 93 94 94 95 95 96 97 98 100 101 102 103 103 104 105 106 107 107 108 109 110 111 112 112 112 113 113 114 115 115 116 116 117
18 18 18 18 18 17 17 17 16 16 16 16 17 18 20 22 24 25 28 30 32 35 37 40 43 45 48 52 55 58 61 64 68 70 72 75 76 78 80 82 84 85 86 87 89 91 92 94 95 96 97 97 97 97 97 97 98 98 99 99 99 100 101 102 103 104 105 105 106 107 108 108 109 109 110 110 111 112 112 113 113 114 114 115 115 116 116 116
18 18 17 17 16 15 14 14 13 13 13 14 15 17 19 21 23 24 26 29 31 33 35 38 40 43 45 48 50 53 55 58 60 62 64 66 67 68 70 72 74 75 76 77 79 81 83 86 89 92 94 96 98 99 99 100 100 100 101 100 100 101 101 102 103 103 104 105 106 107 107 108 109 109 108 109 110 111 112 112 113 113 113 113 113 113 113 113
16 15 14 13 12 12 11 11 10 11 12 14 16 18 20 22 24 26 28 30 32 34 36 38 40 42 44 47 49 51 53 55 57 59 60 61 62 63 63 64 65 66 67 68 69 71 72 74 76 79 82 85 87 90 93 95 96 97 98 98 98 99 99 101 101 102 103 104 104 106 106 107 107 107 107 107 108 108 109 110 110 111 110 110 110 110 109 109
13 12 11 10 9 8 8 8 10 12 13 15 17 19 21 24 26 28 30 32 34 36 38 40 41 43 45 47 49 51 53 54 56 57 58 59 60 61 61 61 62 63 63 64 64 65 66 66 67 69 71 73 76 78 81 84 87 89 91 92 94 95 95 97 98 99 100 101 102 103 103 103 103 103 102 102 102 103 103 104 105 105 106 106 106 106 106 107
9 8 8 8 7 7 8 9 12 14 15 17 19 21 23 25 27 30 32 33 35 37 39 41 42 44 46 47 49 50 52 53 55 56 57 57 58 59 60 60 60 61 61 61 62 62 62 62 63 64 64 65 67 68 71 73 76 78 80 82 85 86 87 89 91 92 93 93 94 95 95 94 94 93 94 94 95 96 97 99 99 100 101 102 103 104 105 105
7 7 6 6 6 8 10 11 13 15 16 18 21 23 26 28 30 32 34 35 37 38 40 41 42 43 45 46 48 48 49 51 52 53 54 54 55 56 57 57 58 58 59 59 59 60 60 60 60 61 61 62 62 63 64 66 67 69 70 72 74 76 77 78 80 82 83 84 85 86 87 86 86 86 88 90 91 93 94 96 97 99 100 101 103 104 105 106
6 5 5 6 8 9 10 12 14 16 19 21 24 26 28 30 32 34 35 37 38 39 40 41 42 42 43 43 44 45 45 46 47 49 50 51 52 53 53 54 55 56 56 57 57 58 58 58 59 59 59 59 60 60 62 63 64 65 66 67 68 70 71 72 73 75 77 79 80 82 82 82 82 84 87 89 91 93 95 96 98 99 101 102 103 104 105 106
5 5 6 7 8 10 11 14 17 19 22 24 27 28 30 32 34 36 37 39 40 40 41 41 41 40 40 39 39 38 38 39 40 42 43 44 46 48 49 51 52 53 54 55 56 56 57 57 57 57 58 58 59 60 61 62 63 64 65 66 67 69 70 71 72 74 76 78 80 81 82 81 82 85 87 89 91 93 94 96 97 98 99 100 101 102 103 103
5 6 7 8 10 12 15 17 20 22 25 27 29 31 33 35 37 38 39 40 41 41 41 39 38 37 35 35 34 33 33 33 33 34 35 36 38 40 41 44 45 47 50 51 52 54 55 55 56 57 57 58 59 60 61 62 64 65 65 66 67 69 70 71 72 73 75 77 78 80 80 79 80 83 85 86 88 89 91 92 93 94 95 96 97 98 100 101
5 7 9 11 14 16 18 20 23 25 27 30 32 34 36 38 39 40 41 41 41 39 37 35 33 32 31 31 31 31 31 31 30 30 31 31 32 33 34 35 37 39 41 43 45 47 49 50 51 52 54 55 56 57 58 59 61 62 62 63 64 65 66 67 69 70 71 73 74 75 76 76 76 78 81 83 84 85 87 88 89 91 92 93 94 96 97 98
7 9 12 15 17 19 21 24 26 28 30 32 34 37 38 40 41 42 42 40 37 33 32 31 30 30 29 29 30 31 30 30 30 29 29 29 30 30 31 31 32 34 35 37 38 40 41 43 44 46 47 49 50 51 53 54 55 56 57 58 60 61 62 63 65 66 68 70 71 72 73 74 74 76 78 80 82 83 85 86 88 89 91 92 94 95 97 98
10 13 15 18 20 22 25 27 29 31 33 35 37 39 41 42 43 42 39 35 31 29 28 28 29 29 29 29 29 29 30 29 29 29 29 29 29 30 30 31 31 32 33 35 36 37 38 39 41 42 44 45 46 47 49 50 51 52 53 55 56 58 59 61 63 65 66 68 70 72 73 74 74 76 79 81 82 84 86 87 89 90 92 94 95 97 99 100
13 16 18 20 23 26 28 30 31 33 35 37 40 42 43 43 41 37 32 29 28 28 27 28 28 28 29 29 29 29 29 30 30 29 29 28 29 29 30 31 31 31 32 34 35 36 37 37 39 40 42 43 44 45 46 48 49 50 52 53 55 57 59 61 63 65 67 69 72 74 76 77 77 79 82 83 85 87 89 90 92 93 95 96 98 100 101 103
16 18 21 24 26 28 30 32 34 35 38 40 42 43 43 40 35 30 27 27 28 28 28 28 27 28 28 29 29 28 27 28 28 28 28 28 28 28 29 30 30 30 30 31 32 34 34 36 37 39 41 42 44 46 47 48 50 51 53 55 57 59 61 63 66 68 70 72 75 77 79 80 81 82 84 87 88 90 91 93 94 96 97 99 100 102 103 105
19 21 24 26 28 31 33 34 36 38 41 43 44 43 39 33 28 26 26 27 27 28 28 28 27 27 26 26 26 25 25 24 25 24 25 25 25 26 27 28 30 31 32 31 31 32 34 36 38 41 43 45 48 49 50 52 54 55 57 58 60 62 64 66 68 70 72 75 78 80 81 83 84 85 87 89 90 92 93 95 96 98 99 101 102 104 105 107
21 23 26 28 31 33 34 36 38 41 43 44 42 38 32 28 27 27 27 28 28 28 27 27 26 25 24 24 23 23 23 23 24 24 24 24 25 26 28 30 32 35 37 39 38 39 40 41 43 45 47 49 52 54 55 57 58 60 61 62 63 65 67 68 70 71 73 76 79 81 82 84 86 88 90 91 93 94 96 97 99 100 102 103 104 106 107 109
22 24 27 30 33 34 35 38 40 42 43 42 37 31 28 27 28 28 28 28 27 27 25 24 23 22 22 22 21 22 22 22 23 24 25 26 27 29 30 32 33 36 39 42 44 45 46 47 48 49 51 52 54 56 58 59 61 62 63 64 65 67 68 69 71 72 73 76 80 83 85 86 88 91 93 94 95 97 98 100 101 103 104 105 106 108 109 110
23 26 29 32 34 35 38 40 42 43 41 36 30 28 28 28 28 27 27 26 25 24 23 23 22 22 21 21 21 21 22 23 23 25 26 28 29 31 32 34 36 38 40 43 45 47 48 50 51 52 54 55 56 57 59 60 62 63 65 66 67 69 70 72 73 74 74 76 80 84 86 88 90 92 94 96 97 99 100 102 103 104 106 107 107 108 109 110
26 29 32 34 35 38 40 41 43 42 36 30 28 28 28 28 27 26 25 24 23 22 21 21 21 21 21 21 21 22 23 24 25 27 29 31 32 34 36 38 40 42 44 46 47 49 50 51 52 53 54 56 57 59 61 62 64 66 67 69 71 72 74 75 76 77 78 78 81 85 88 90 92 94 96 97 98 100 101 102 103 104 105 105 106 107 107 108
28 31 33 35 37 39 41 42 42 37 31 28 28 28 28 27 26 24 23 22 21 20 19 18 18 19 19 20 22 23 24 26 28 30 32 34 35 37 39 41 42 44 46 48 49 51 52 53 54 55 56 57 59 61 63 65 66 68 70 72 74 75 77 78 79 80 82 82 83 86 89 91 93 94 95 96 97 98 99 100 101 102 102 103 103 104 105 105
30 33 34 37 39 40 42 42 38 32 28 28 29 28 27 26 24 22 21 20 19 19 18 18 19 20 21 23 25 26 28 29 31 34 35 37 38 39 41 42 44 45 47 48 50 51 53 54 56 57 59 61 62 64 66 68 69 71 73 74 76 78 80 81 82 82 84 84 84 85 88 90 91 91 92 93 94 95 96 97 98 99 100 100 101 102 102 103
32 34 36 38 40 41 43 40 33 29 29 29 28 27 25 24 22 21 20 20 19 19 19 20 21 23 24 26 29 31 33 35 36 38 39 40 41 42 43 44 45 46 47 49 50 53 55 57 59 60 62 64 65 67 69 71 73 74 76 77 79 81 82 83 84 83 83 83 81 81 84 87 88 89 89 90 91 92 94 95 96 97 98 99 99 99 100 100
34 36 38 40 41 42 41 34 29 29 29 28 26 25 23 22 21 20 20 19 19 20 21 22 23 25 27 29 32 35 37 38 39 40 42 43 44 45 45 46 46 47 49 51 53 55 58 60 62 63 64 67 69 70 72 74 76 78 80 82 83 84 84 84 84 84 83 83 81 79 81 84 86 86 88 89 91 92 93 94 95 96 97 97 97 98 98 99
36 38 40 40 42 42 36 30 29 29 28 27 25 23 22 21 20 19 19 20 20 21 23 24 26 28 30 33 35 37 39 40 41 42 44 45 46 46 47 48 49 51 52 54 56 58 60 63 65 67 68 70 72 73 75 77 79 81 82 83 83 83 83 83 83 83 84 84 83 81 80 83 85 86 88 89 90 92 93 93 94 95 95 96 96 96 97 98
38 39 40 41 42 38 32 29 30 29 27 25 23 22 21 20 19 19 20 21 22 23 25 27 29 31 34 36 37 39 40 41 43 44 45 46 47 48 49 51 53 55 56 58 59 61 64 66 68 70 72 74 76 77 78 80 81 81 80 80 80 80 80 80 81 82 83 84 85 84 84 85 86 87 87 89 90 91 91 92 92 93 93 94 94 95 95 95
39 40 41 42 40 34 30 30 30 27 25 23 22 21 20 19 20 20 21 22 23 25 28 30 33 35 37 38 39 40 42 43 45 46 46 47 49 50 53 54 56 58 60 61 63 65 68 70 72 73 75 76 78 80 81 80 80 79 79 78 79 79 79 80 81 81 82 83 85 85 85 85 86 86 86 87 88 89 89 90 90 91 91 91 92 92 92 93
39 40 42 42 37 31 30 30 28 25 24 22 21 20 20 20 21 21 23 24 26 28 31 34 36 38 39 40 41 42 44 45 46 47 48 50 52 54 56 57 59 61 63 65 66 68 70 72 74 76 78 79 80 80 80 79 77 77 76 76 77 78 79 80 80 80 80 80 82 82 82 82 82 82 82 83 85 86 86 87 88 88 89 89 90 91 91 91
40 41 42 39 33 30 30 29 26 24 23 21 21 20 21 21 22 23 25 27 29 32 35 37 39 40 41 42 43 44 45 46 47 48 50 53 55 57 58 60 62 64 66 68 70 71 73 74 76 78 79 79 78 77 76 76 75 75 74 74 75 76 77 77 77 77 76 76 78 78 78 78 79 78 78 80 81 82 84 85 85 86 87 88 89 90 90 90
40 42 41 36 31 30 29 27 25 23 22 21 21 21 21 22 24 26 28 30 32 35 37 39 40 41 42 43 44 45 46 47 49 51 53 55 57 59 61 63 65 68 70 72 73 74 76 77 78 78 77 76 75 73 73 73 73 73 73 73 74 74 75 75 75 74 72 72 75 76 75 75 77 78 77 78 79 81 82 84 85 86 87 87 88 88 88 88
41 42 38 33 30 30 28 25 24 22 21 21 21 21 22 24 26 28 30 33 35 37 39 41 41 43 44 45 46 46 47 49 51 53 55 57 59 61 64 66 68 70 72 74 76 78 79 79 78 77 75 74 73 73 72 72 72 73 73 73 73 72 73 73 73 72 71 70 72 74 74 73 75 77 78 79 80 81 83 84 85 85 86 87 87 87 87 86
41 40 35 31 30 29 26 24 23 21 21 21 21 23 24 26 28 30 32 35 37 39 41 42 44 45 46 47 47 48 49 51 53 55 57 59 62 64 67 69 71 73 75 76 78 80 79 78 76 75 74 73 72 72 72 72 73 72 72 71 70 70 70 71 71 70 69 69 69 71 73 74 75 76 77 79 80 81 83 83 83 84 85 86 86 86 85 85
41 38 32 30 29 27 25 24 22 21 21 21 22 24 26 27 29 32 34 37 39 41 42 44 46 46 47 48 49 50 51 53 54 56 59 61 64 67 69 72 74 75 77 79 79 79 78 77 75 74 72 71 71 71 71 72 72 71 70 69 67 67 68 69 70 69 68 69 70 71 73 75 76 77 78 79 80 81 82 83 83 84 85 85 85 85 85 85
40 35 31 30 28 26 24 23 21 21 22 23 24 25 27 30 32 35 37 39 41 42 43 45 46 46 47 48 49 51 53 54 56 58 61 63 66 68 71 74 76 77 79 79 78 77 76 75 73 72 70 70 70 71 70 70 69 68 67 67 66 66 67 69 70 68 68 70 72 73 74 75 77 78 79 79 80 81 82 83 83 83 84 84 85 85 85 84
37 32 30 29 26 24 23 22 22 22 23 24 25 27 30 32 35 37 39 40 42 43 44 45 45 46 47 48 49 52 53 55 58 60 63 65 67 70 72 75 77 78 79 78 76 75 73 72 71 70 70 69 70 70 69 68 68 67 66 65 65 65 66 68 69 68 68 70 73 74 75 75 76 77 78 80 80 81 81 81 81 81 82 82 82 83 83 83
34 30 29 28 25 24 23 22 22 23 24 25 27 30 32 35 37 39 41 42 43 44 45 44 45 46 47 48 50 52 54 57 60 63 65 66 68 71 73 75 77 78 78 76 75 73 71 69 68 68 69 69 69 68 68 66 66 66 65 64 64 64 66 69 71 71 71 72 73 74 75 75 76 76 77 78 79 79 79 78 78 79 80 80 80 80 81 81
31 30 28 26 24 23 22 22 22 23 25 27 30 32 34 36 39 40 42 43 44 44 44 44 45 46 48 50 52 54 56 59 62 64 65 67 69 71 74 76 77 77 76 75 73 71 69 67 66 66 67 68 67 67 66 66 65 65 65 64 65 66 68 71 74 73 73 74 75 75 76 76 76 76 75 75 76 77 77 77 77 78 78 79 79 79 78 78
Wind_Direction
208 207 206 206 208 207 208 212 216 217 219 221 223 225 228 231 233 234 236 236 238 241 242 243 244 245 245 247 248 250 252 253 253 253 251 250 249 248 247 245 243 243 244 247 249 250 252 254 255 256 257 256 256 257 258 258 258 259 259 259 259 259 259 258 258 257 257 258 257 256 256 257 259 262 266 268 268 268 267 267 269 270 270 269 269 269 270 271
209 209 208 208 209 208 205 207 215 220 222 225 226 229 231 233 234 235 236 236 237 239 240 241 243 245 247 248 249 250 251 251 253 254 254 254 252 251 249 248 246 245 245 246 247 248 250 251 253 255 256 257 257 258 260 260 259 259 259 259 259 259 259 258 257 256 256 257 257 257 257 258 260 263 267 269 269 269 269 270 272 271 270 270 270 270 271 271
209 210 211 211 210 210 208 205 209 219 224 226 228 230 232 233 234 236 237 237 237 238 239 240 241 244 246 247 248 250 252 252 253 254 255 256 256 255 253 252 250 249 248 248 248 249 249 250 252 253 255 256 257 258 259 259 259 259 259 259 259 259 258 258 257 257 257 257 258 259 259 260 261 264 267 268 269 270 272 273 272 270 270 271 272 272 273 273
211 211 212 214 214 213 212 209 208 213 221 225 227 228 230 231 233 236 237 238 239 239 240 241 243 244 246 247 248 250 252 253 254 255 256 257 257 257 256 255 255 254 253 253 253 252 252 252 252 253 255 256 257 258 259 259 259 259 259 259 259 259 258 258 258 258 259 259 261 261 262 264 265 266 268 269 270 272 272 271 270 270 271 273 274 275 275 276
214 213 214 216 217 216 216 214 212 212 217 223 225 225 226 229 231 234 236 238 240 241 242 243 244 246 247 249 250 252 254 256 257 258 258 258 258 257 256 256 256 257 257 257 257 257 257 256 256 256 257 257 259 260 260 260 260 260 260 259 260 260 260 260 260 260 261 261 263 264 266 268 269 269 270 271 271 272 271 270 270 272 272 273 274 275 276 276
219 217 216 218 220 221 220 219 218 216 216 219 223 225 226 227 230 233 235 237 239 240 242 244 246 248 248 250 251 253 254 255 257 259 259 259 260 259 258 257 257 257 258 258 259 260 260 260 260 260 261 261 262 263 264 263 263 262 262 262 262 263 263 263 263 263 264 264 266 267 268 270 271 271 271 271 271 271 271 271 271 271 271 272 273 274 275 276
224 222 220 220 222 224 225 224 223 222 220 220 221 224 226 228 230 232 234 236 237 238 239 241 243 246 248 249 250 251 252 252 254 254 253 255 257 259 260 261 260 260 260 261 262 263 264 264 264 265 265 265 266 267 268 268 267 266 266 266 266 266 266 267 267 267 267 267 268 268 269 270 271 271 271 271 271 270 270 270 270 270 271 272 274 275 275 276
233 232 229 227 226 226 227 228 228 228 227 225 224 225 226 228 230 232 234 235 237 238 239 239 240 242 243 246 247 248 249 250 251 252 251 252 254 256 257 259 261 262 263 264 266 267 268 268 268 268 269 269 269 270 270 270 270 270 269 270 269 269 269 269 269 269 269 269 269 269 269 270 270 270 270 269 269 268 268 269 270 271 273 274 275 276 276 276
241 242 240 237 234 232 231 231 232 233 233 232 230 229 228 229 231 232 234 235 237 239 240 241 242 243 243 245 246 246 247 248 250 251 252 253 254 255 256 257 258 260 262 264 266 268 269 269 269 269 270 270 270 270 270 270 270 270 271 271 270 270 270 269 269 269 269 269 268 268 268 269 268 268 268 268 268 269 269 270 271 273 274 275 275 276 276 276
250 251 251 249 246 243 240 238 237 236 236 237 236 235 233 233 233 234 235 235 237 238 241 242 244 246 247 247 248 248 248 249 250 251 253 253 254 256 257 258 258 259 260 262 264 266 267 267 266 267 267 268 268 268 268 268 268 268 269 269 268 268 268 267 267 267 267 267 267 267 267 267 268 268 268 269 270 270 271 272 273 274 274 275 275 276 276 277
258 259 259 258 256 254 252 249 246 243 241 240 240 240 240 239 238 237 238 238 238 239 241 242 244 246 248 249 249 250 251 252 252 253 254 254 255 256 257 258 259 260 261 263 264 265 265 266 266 266 266 266 265 265 265 265 265 265 266 266 266 266 266 266 266 266 266 266 267 267 268 268 269 270 270 271 271 272 273 273 274 274 275 275 275 276 276 276
264 266 267 266 265 264 262 258 255 253 250 247 246 245 245 245 244 243 243 243 243 243 243 244 245 247 248 249 249 250 251 252 253 254 255 256 257 257 258 258 259 261 262 263 264 265 265 265 265 265 265 265 265 265 265 264 264 264 265 265 266 267 267 267 267 268 268 268 268 269 269 270 271 272 272 272 273 273 274 274 274 274 275 275 275 275 275 275
269 272 273 273 272 269 266 263 262 260 258 256 254 252 251 250 249 249 249 248 248 248 248 248 248 249 250 251 251 251 251 252 253 254 255 256 257 258 259 259 260 260 261 262 262 263 263 263 264 264 264 264 264 264 264 264 265 264 264 265 265 266 267 267 268 269 269 270 270 270 271 271 272 272 273 273 273 274 274 274 274 274 274 274 274 274 274 274
276 279 280 280 277 274 271 269 267 265 263 261 259 258 257 256 255 254 254 253 254 254 254 254 253 254 254 254 254 254 254 254 255 256 256 257 257 258 259 259 260 260 261 261 261 262 262 262 263 263 263 263 263 263 264 264 264 264 265 265 265 266 267 267 267 268 269 269 270 271 271 271 272 273 273 273 274 274 274 274 274 274 274 274 274 274 274 274
286 286 285 283 280 279 277 275 272 270 268 266 264 262 261 261 260 259 259 258 258 258 258 258 258 258 258 258 258 258 258 258 258 259 259 259 260 260 260 260 260 261 261 261 262 262 263 263 263 263 264 264 264 264 264 264 264 264 265 265 265 266 267 267 268 268 269 269 270 270 271 271 272 272 273 273 273 273 273 274 274 274 274 274 274 274 274 274
292 290 287 285 284 283 281 278 276 273 271 269 268 268 267 266 266 265 264 263 262 262 261 261 261 261 261 260 260 260 261 261 261 261 261 262 262 263 263 263 263 262 263 263 263 263 264 264 264 264 265 265 265 264 265 265 265 265 265 266 266 266 267 267 268 268 269 270 270 271 271 271 271 272 272 272 272 273 273 273 273 274 274 274 274 274 275 275
292 289 287 286 285 282 279 276 274 272 272 273 273 273 274 274 274 273 271 270 268 267 266 265 264 263 263 263 263 263 263 263 263 263 263 263 264 264 265 265 265 265 265 265 265 265 265 265 265 265 265 265 265 265 265 265 265 265 266 266 266 267 267 267 268 269 269 270 270 271 271 271 272 272 272 273 273 273 273 273 274 274 274 274 275 275 275 275
290 288 287 285 281 277 273 271 272 275 277 279 280 281 282 282 281 279 278 276 274 272 271 269 268 267 266 266 265 265 265 265 265 265 265 265 265 265 266 266 267 267 267 267 266 266 266 266 265 265 265 265 265 265 265 265 266 266 266 266 266 266 267 267 268 268 269 269 270 270 271 271 272 272 273 273 274 274 274 274 275 275 275 275 275 275 276 276
290 288 284 279 273 269 270 274 279 282 285 287 288 289 289 288 286 284 282 281 279 277 275 274 272 271 270 270 269 269 268 268 268 268 268 268 267 267 267 268 268 269 269 269 269 268 268 267 267 267 266 266 265 265 265 265 265 265 266 266 266 267 267 267 268 268 268 269 270 270 271 272 273 273 274 274 274 275 275 275 276 276 276 276 276 276 276 277
288 283 275 267 266 270 280 289 294 296 296 297 296 295 294 292 291 289 287 285 283 282 280 278 277 276 275 274 273 272 272 271 271 270 270 270 270 269 269 269 268 269 269 269 270 270 270 270 269 269 268 268 267 267 266 266 266 266 266 266 266 267 267 268 269 269 269 270 270 271 272 272 273 274 274 275 275 275 275 276 276 276 276 277 277 277 277 277
278 268 263 265 276 292 302 304 304 304 303 302 300 298 296 295 294 292 290 288 287 285 283 282 280 278 277 276 276 275 275 275 274 274 273 272 272 271 271 270 269 268 268 268 269 270 270 271 271 271 271 271 270 270 269 268 268 267 267 267 267 267 268 268 269 270 270 271 271 272 272 273 274 274 275 275 275 276 276 276 277 277 277 277 278 278 278 278
263 263 272 288 305 310 309 307 307 306 306 306 304 304 302 300 298 296 295 293 291 289 287 286 284 282 280 279 279 278 278 277 277 277 276 275 274 273 272 271 270 270 269 269 268 269 269 270 270 271 272 272 272 272 272 272 271 271 270 270 270 270 270 270 271 271 271 272 272 273 273 274 274 275 275 275 276 276 276 277 277 277 278 278 278 279 279 279
271 286 305 318 319 314 312 312 313 313 313 311 309 307 305 303 302 300 299 298 296 294 293 291 289 286 285 284 283 282 280 279 278 278 277 276 275 274 273 272 272 271 271 270 270 270 270 271 271 272 272 273 274 274 274 274 274 273 273 273 273 273 273 273 273 274 274 274 274 274 275 275 276 276 276 276 277 277 277 278 278 278 278 279 279 279 279 279
302 320 327 327 322 319 320 322 320 318 316 314 311 309 308 307 306 305 304 303 301 300 298 296 294 293 292 291 289 288 286 284 283 281 280 279 277 276 274 273 272 272 272 272 272 273 273 274 274 274 275 275 276 276 276 277 277 277 277 277 277 277 277 277 277 278 278 278 278 277 277 277 278 278 278 278 278 278 278 278 278 279 279 279 279 279 279 279
330 336 337 334 332 331 329 325 322 319 316 315 314 313 312 311 310 308 308 307 305 304 303 301 300 300 299 299 298 297 295 293 291 289 287 285 283 280 278 276 275 274 273 273 274 274 275 276 277 278 278 279 279 279 280 280 280 281 281 281 281 281 281 281 281 280 280 280 280 280 279 279 279 279 279 278 278 278 278 278 279 279 278 278 278 278 278 278
344 345 344 341 338 334 329 325 322 320 319 318 316 315 314 313 312 311 310 309 308 307 306 306 306 305 305 305 305 304 303 302 300 298 295 293 291 288 286 283 281 279 278 277 277 277 278 278 279 280 280 281 282 282 282 283 283 284 284 284 283 283 283 283 282 282 281 281 280 280 280 280 279 279 278 278 278 278 278 278 278 278 278 278 278 279 279 279
348 348 345 341 336 331 327 325 323 322 321 319 317 316 316 315 314 313 312 310 310 310 311 310 310 308 307 306 305 304 304 303 303 302 301 300 298 295 293 291 289 288 286 285 284 283 284 284 284 284 284 284 284 284 285 285 285 285 285 285 284 284 284 283 283 283 282 282 282 281 281 281 280 279 279 279 279 279 279 279 279 279 279 279 279 279 279 279
348 346 342 337 334 332 329 326 325 323 321 319 319 318 318 317 315 314 313 312 312 313 314 313 311 309 308 305 303 302 301 301 301 302 302 302 301 300 299 297 296 295 293 291 291 290 289 288 288 287 287 286 286 286 286 286 286 286 286 286 286 286 285 285 285 285 284 284 284 283 283 282 282 281 281 281 280 280 280 280 280 279 279 279 279 279 279 279
347 343 338 337 335 332 329 327 325 323 321 321 321 320 318 317 315 314 314 314 315 315 314 312 310 309 307 306 305 304 304 304 304 304 303 302 301 300 299 297 296 296 295 294 293 292 292 291 291 291 290 290 289 289 289 288 288 288 288 288 288 287 287 287 286 286 286 285 285 284 284 283 283 282 282 282 281 280 280 280 280 279 279 279 279 279 279 278
344 340 338 336 333 330 329 327 324 323 323 323 321 319 318 317 316 317 317 317 316 314 313 311 310 309 309 309 309 310 311 311 312 312 311 310 310 308 306 304 302 300 299 299 298 298 297 296 295 294 293 292 291 290 290 290 289 289 288 288 288 288 287 287 287 286 286 285 285 284 284 284 283 282 282 282 281 281 281 280 280 280 280 280 279 279 279 279
341 338 335 333 331 330 328 325 324 325 324 322 320 319 318 318 319 320 320 318 315 314 313 313 312 311 311 312 313 314 315 316 316 316 316 315 314 312 309 306 302 299 296 294 292 293 293 293 293 293 293 293 292 291 291 290 289 289 288 288 287 287 287 287 286 286 286 286 285 285 285 285 285 284 283 283 283 283 282 282 282 281 281 281 281 280 280 280
336 334 332 331 331 329 326 325 326 325 323 321 320 319 320 322 323 322 320 318 316 315 314 314 315 315 316 317 318 318 319 318 318 317 316 315 313 311 309 308 307 306 303 301 299 298 298 297 296 296 296 295 295 295 294 293 292 292 291 291 290 289 289 289 289 289 289 289 289 289 289 288 288 287 286 286 285 285 284 284 283 283 282 282 281 281 281 281
331 329 330 330 329 326 326 327 326 324 322 321 321 322 323 324 323 321 319 318 317 317 317 317 318 320 321 322 322 322 321 321 320 319 318 317 315 314 313 311 310 309 307 306 306 305 304 303 302 301 299 299 298 298 298 297 296 296 295 295 294 293 292 291 291 290 290 290 290 290 289 289 288 288 287 287 286 286 285 285 284 284 283 283 283 282 282 281
327 328 330 328 326 326 328 327 325 324 323 324 324 325 324 323 322 321 320 320 320 321 322 323 324 324 325 324 324 323 323 322 320 320 318 316 314 313 311 309 307 306 305 305 304 304 305 305 305 304 303 303 302 301 300 299 298 297 296 295 294 293 292 291 290 289 289 288 289 289 289 289 288 288 288 287 287 287 286 286 286 285 285 284 284 283 283 283
328 330 329 326 327 329 329 327 325 325 325 326 325 325 324 324 323 323 324 325 325 327 329 330 330 330 329 328 326 325 324 322 320 318 316 314 313 312 311 310 309 309 309 308 307 307 307 306 305 305 304 304 303 302 301 300 299 298 297 296 296 295 294 293 293 292 291 291 291 291 290 290 290 289 289 288 288 288 287 287 286 286 286 285 285 285 285 284
330 330 328 327 329 330 328 327 327 327 327 326 326 326 325 326 326 326 326 327 329 331 331 330 330 329 327 326 325 323 321 319 316 314 313 313 313 312 312 312 313 313 312 311 311 310 309 308 307 306 305 304 303 303 302 301 300 300 299 298 298 297 297 296 296 295 295 294 293 293 292 291 290 290 289 289 289 288 288 288 287 287 286 286 286 286 286 285
331 328 328 330 330 329 328 329 328 328 327 327 327 328 328 328 328 328 329 330 332 331 330 329 328 327 326 324 323 321 318 316 315 315 315 315 316 316 316 316 316 315 313 313 312 311 310 310 308 307 306 306 305 304 303 302 302 302 301 301 300 300 299 299 298 297 296 295 295 294 293 292 291 291 290 290 290 289 289 288 288 288 287 287 287 287 287 287
330 328 330 331 330 330 330 330 329 329 329 329 330 330 330 330 329 330 332 332 332 332 332 333 330 329 327 324 322 320 319 319 319 320 320 320 320 320 319 318 317 316 315 315 314 313 312 311 310 309 308 307 306 306 306 305 305 305 304 303 302 302 301 300 300 299 298 297 296 295 294 293 293 292 292 291 291 290 290 290 290 289 289 289 289 289 289 289
329 331 332 331 331 331 331 331 331 331 331 332 332 331 330 330 331 333 333 333 334 335 334 332 330 327 325 323 322 322 322 323 324 324 324 323 323 322 321 320 319 318 318 317 316 315 313 312 311 310 310 309 309 309 309 309 308 308 307 306 306 305 304 303 302 302 301 299 298 297 296 295 294 294 294 294 293 293 292 292 292 292 291 291 291 291 291 291
331 332 332 332 332 332 332 333 333 333 333 333 332 330 330 332 333 334 334 336 337 335 332 330 327 325 324 323 323 324 325 326 326 326 325 325 324 323 323 322 322 321 320 319 317 316 315 314 313 313 313 313 312 312 311 311 310 309 308 308 307 306 306 305 304 303 303 302 301 301 299 298 297 297 296 296 295 294 294 294 293 293 293 293 293 292 292 291
332 331 332 333 333 333 334 334 334 335 334 332 330 330 333 334 334 335 338 338 336 332 329 326 325 325 324 325 326 327 328 328 328 327 327 326 326 325 325 325 324 323 321 320 319 318 317 317 316 316 316 315 314 314 313 312 311 310 309 308 308 307 306 305 305 304 304 304 303 303 302 300 299 299 298 297 296 296 295 295 294 294 294 293 293 292 292 291
331 332 333 334 334 334 335 335 335 334 332 331 331 333 335 335 336 337 338 336 332 329 326 325 325 326 326 328 329 330 331 330 329 329 328 328 328 328 327 326 325 324 323 322 321 321 320 319 318 318 317 316 316 315 314 313 312 312 311 311 310 309 308 307 307 306 306 305 304 303 302 301 301 300 299 298 297 297 296 296 296 295 295 295 294 294 294 294
332 333 334 335 335 336 336 335 334 332 332 333 334 335 336 337 338 338 336 333 330 328 327 327 327 328 330 332 333 333 332 332 331 331 331 331 330 329 328 327 326 325 325 324 323 322 321 320 320 319 318 318 317 316 315 314 314 313 312 312 311 310 309 308 307 306 305 304 303 302 301 301 301 300 300 299 299 298 298 298 298 298 298 298 298 298 298 298
333 334 335 336 337 336 336 334 333 333 333 333 334 337 339 339 338 336 334 332 330 328 328 328 329 332 334 334 334 334 333 333 333 333 332 332 331 330 329 329 328 328 327 325 324 324 323 322 321 320 319 318 318 317 316 315 315 314 313 312 311 309 308 307 306 306 306 305 303 303 303 303 303 302 302 301 301 301 300 300 300 301 301 301 300 300 300 300
334 335 336 336 336 335 335 333 333 333 333 334 337 340 340 337 336 335 332 330 329 329 329 331 333 335 335 335 335 335 335 335 335 334 333 333 332 332 332 331 330 330 328 327 326 325 324 323 322 321 320 319 319 318 317 316 315 315 314 313 312 311 310 309 309 308 308 308 307 307 307 307 307 306 306 305 305 304 304 304 304 304 304 303 303 302 302 302
334 335 336 335 335 335 333 332 332 333 335 338 340 339 338 336 334 332 330 329 329 330 332 334 336 336 336 336 337 336 337 336 336 335 335 335 334 334 334 333 332 331 329 328 327 326 325 324 323 323 322 321 321 320 319 318 317 317 316 316 315 315 313 312 312 312 313 313 312 311 311 310 310 310 310 309 309 308 308 307 307 306 306 305 305 305 305 305
335 335 335 335 335 334 332 332 334 336 338 340 339 338 337 335 332 329 329 329 331 333 335 337 337 337 338 338 338 338 337 337 336 336 337 337 337 336 335 334 333 332 330 329 328 327 326 326 325 325 324 324 323 322 321 321 320 320 319 319 318 317 316 315 315 316 317 316 314 314 314 313 313 313 313 312 312 311 309 309 309 309 308 308 308 308 308 307
335 335 335 335 334 332 332 334 336 337 339 339 339 337 334 331 330 330 331 332 334 336 338 338 338 339 338 338 338 338 338 337 338 338 338 338 338 337 336 335 334 333 331 330 329 328 328 328 327 327 326 326 325 324 324 323 323 322 322 321 321 320 319 318 318 319 320 319 318 318 317 317 317 316 316 315 313 313 312 312 313 312 312 311 311 310 309 309
335 335 335 334 333 331 333 335 336 337 338 338 337 334 331 331 332 333 334 335 336 338 339 339 339 339 339 339 338 338 338 339 339 339 339 339 338 337 336 335 334 333 332 331 330 330 330 330 329 329 328 328 327 327 326 326 325 324 324 324 324 324 323 321 321 322 323 322 321 321 321 320 319 319 317 316 316 315 315 316 316 315 314 313 312 311 311 310
334 334 334 333 332 332 334 335 336 337 338 336 334 332 332 333 334 334 334 336 338 339 339 339 339 339 339 338 338 338 339 339 340 340 339 338 338 337 337 336 335 334 333 332 332 332 332 332 332 331 331 330 330 329 329 328 327 327 327 328 328 327 325 323 322 324 325 324 324 323 323 322 320 320 319 319 318 318 317 317 316 315 313 313 312 312 312 311
334 333 333 332 332 333 334 336 337 337 336 334 333 333 334 334 334 334 336 338 339 339 339 339 339 339 339 339 339 339 340 340 340 340 339 338 338 338 337 336 335 334 334 334 335 335 335 335 335 334 333 332 332 331 331 330 330 330 330 331 330 329 328 327 326 327 328 327 326 325 323 322 322 321 321 320 319 318 317 317 316 315 314 314 314 314 313 312
333 333 332 331 332 333 334 336 336 336 335 334 334 334 334 333 334 336 337 338 339 339 339 339 339 339 339 340 340 341 341 341 340 340 339 339 339 338 338 337 337 336 337 337 337 337 338 338 337 336 336 335 335 335 334 334 334 334 334 334 334 333 333 331 329 330 330 328 327 326 325 325 324 323 322 321 320 319 318 319 318 317 317 316 316 315 315 314